Everett, WA
on Wednesday, January 9, 2013

Wednesday
Previous Day Next Day
Daily Summary
 ActualAverageRecord
Temperature
Mean Temperature °F °F  
Max Temperature 50°F 44°F 55°F (1953)
Min Temperature 33°F 32°F 12°F (1973)
Degree Days
Heating Degree Days 24    
Moisture
Dew Point 36°F   
Average Humidity 90    
Maximum Humidity 93    
Minimum Humidity 85    
Precipitation
Precipitation 1.07 in in in ()
Wind
Wind Speed 9 mph   
Max Wind Speed 24 mph   
Max Gust Speed 41 mph   
Visibility 6 miles   
Events Fog , Rain , Snow   
Averages and records for this station are not official NWS values.
Key: T is trace of precipitation, MM is missing value
Source: NWS Daily Summary
Seasonal Weather Averages
Time(PST)TemperatureDew PointHumidity Pressure Visibility Wind DirectionWind SpeedGust SpeedPrecipitationEvents Conditions
12:53 AM 50.0°F 46.0°F 86% 29.72 in 7.0 miles South 24.2 mph 41.4 mph 0.07 in Rain Light Rain
1:53 AM 48.9°F 45.0°F 86% 29.73 in 10.0 miles South 20.7 mph 27.6 mph 0.05 in Rain Light Rain
2:53 AM 46.9°F 43.0°F 86% 29.73 in 9.0 miles SSW 13.8 mph - 0.08 in Rain Light Rain
3:53 AM 45.0°F 41.0°F 86% 29.71 in 6.0 miles South 9.2 mph - 0.08 in Rain Light Rain
4:15 AM 44.6°F 41.0°F 87% 29.70 in 5.0 miles SW 4.6 mph - 0.03 in Rain Rain
4:26 AM 44.6°F 42.8°F 93% 29.70 in 5.0 miles SW 5.8 mph - 0.05 in Rain Light Rain
4:53 AM 44.1°F 41.0°F 89% 29.69 in 6.0 miles SSW 5.8 mph - 0.10 in Rain Light Rain
5:01 AM 42.8°F 41.0°F 93% 29.68 in 5.0 miles SSW 5.8 mph - N/A Rain Light Rain
5:50 AM 42.8°F 41.0°F 93% 29.66 in 8.0 miles ENE 4.6 mph - 0.10 in Rain Light Rain
5:53 AM 43.0°F 41.0°F 93% 29.67 in 8.0 miles Calm Calm - 0.11 in Rain Light Rain
6:42 AM 42.8°F 41.0°F 93% 29.67 in 6.0 miles NNE 3.5 mph - 0.09 in Rain Light Rain
6:49 AM 42.8°F 41.0°F 93% 29.67 in 5.0 miles Calm Calm - 0.10 in Rain Light Rain
6:53 AM 43.0°F 41.0°F 93% 29.68 in 5.0 miles Calm Calm - 0.11 in Rain Light Rain
7:53 AM 42.1°F 37.9°F 85% 29.71 in 9.0 miles South 6.9 mph - 0.08 in Rain Light Rain
8:29 AM 41.0°F 39.2°F 93% 29.71 in 10.0 miles SSE 6.9 mph - 0.02 in Rain Light Rain
8:35 AM 41.0°F 39.2°F 93% 29.72 in 8.0 miles South 4.6 mph - 0.02 in Rain Light Rain
8:53 AM 41.0°F 37.4°F 87% 29.72 in 5.0 miles South 5.8 mph - N/A Rain Light Rain
10:08 AM 39.2°F 35.6°F 87% 29.74 in 2.0 miles South 9.2 mph - 0.00 in Rain Light Rain
10:15 AM 39.2°F 35.6°F 87% 29.74 in 3.0 miles South 8.1 mph - 0.00 in Rain Light Rain
10:53 AM 37.9°F 35.1°F 89% 29.76 in 6.0 miles SSE 10.4 mph - 0.00 in   Overcast
11:53 AM 37.9°F 36.0°F 93% 29.76 in 3.0 miles South 10.4 mph - 0.01 in   Overcast
12:53 PM 39.0°F 37.0°F 93% 29.76 in 9.0 miles SSE 5.8 mph - 0.02 in   Overcast
1:43 PM 37.4°F 35.6°F 93% 29.77 in 0.2 miles East 5.8 mph - N/A Fog Fog
1:53 PM 37.9°F 36.0°F 93% 29.78 in 0.2 miles ESE 4.6 mph - N/A Fog Fog
2:27 PM 35.6°F 33.8°F 93% 29.79 in 2.0 miles ENE 3.5 mph - 0.05 in Rain Light Rain
2:53 PM 37.0°F 34.0°F 89% 29.81 in 2.0 miles Variable 3.5 mph - 0.09 in Rain Light Rain
3:00 PM 37.4°F 33.8°F 87% 29.80 in 3.0 miles Calm Calm - 0.00 in Rain Light Rain
3:53 PM 37.9°F 35.1°F 89% 29.83 in 5.0 miles Calm Calm - 0.03 in Rain Light Rain
4:53 PM 37.0°F 33.1°F 86% 29.85 in 8.0 miles Calm Calm - 0.07 in Rain Light Rain
5:53 PM 34.0°F 32.0°F 92% 29.88 in 5.0 miles SSE 6.9 mph - 0.02 in Snow Light Snow
5:56 PM 33.8°F 32.0°F 93% 29.86 in 1.8 miles SSE 9.2 mph - N/A Snow Light Snow
6:00 PM 33.8°F 32.0°F 93% 29.87 in 2.0 miles SSE 9.2 mph - 0.01 in Snow Light Snow
6:34 PM 35.6°F 33.8°F 93% 29.88 in 2.0 miles East 6.9 mph - 0.04 in Rain Light Freezing Rain
6:40 PM 33.8°F 32.0°F 93% 29.88 in 2.0 miles SSE 6.9 mph - 0.05 in Snow Light Snow
6:53 PM 34.0°F 32.0°F 92% 29.90 in 2.0 miles ESE 9.2 mph - 0.07 in Snow Light Snow
7:16 PM 35.6°F 32.0°F 87% 29.88 in 4.0 miles Variable 4.6 mph - 0.02 in Snow Light Snow
7:36 PM 33.8°F 32.0°F 93% 29.89 in 1.8 miles Variable 5.8 mph - 0.03 in Snow Light Snow
7:53 PM 34.0°F 32.0°F 92% 29.91 in 1.5 miles Variable 4.6 mph - 0.05 in Snow Light Snow
8:34 PM 33.8°F 32.0°F 93% 29.90 in 3.0 miles Variable 4.6 mph - 0.03 in Snow Light Snow
8:42 PM 33.8°F 32.0°F 93% 29.90 in 7.0 miles Variable 5.8 mph - 0.03 in   Overcast
8:53 PM 34.0°F 32.0°F 92% 29.92 in 10.0 miles Variable 6.9 mph - 0.03 in   Overcast
9:53 PM 34.0°F 32.0°F 92% 29.94 in 10.0 miles SSE 10.4 mph - N/A   Overcast
10:51 PM 35.6°F 32.0°F 87% 29.93 in 10.0 miles ESE 3.5 mph - 0.00 in   Mostly Cloudy
10:53 PM 35.1°F 32.0°F 89% 29.95 in 10.0 miles SE 5.8 mph - 0.00 in   Mostly Cloudy
11:42 PM 35.6°F 32.0°F 87% 29.93 in 10.0 miles SSE 8.1 mph - N/A   Scattered Clouds
11:53 PM 36.0°F 32.0°F 86% 29.94 in 10.0 miles Variable 3.5 mph - N/A   Clear
Moon Phase
Jan. 09 Jan. 11 Jan. 18 Jan. 26 Feb. 03
Sunrise:07:56 AM (PST) Moon Rise:05:42 AM (PST)1/9
Sunset:04:36 PM (PST) Moon Set:02:43 PM (PST)1/9

Copyright © 2014 The Weather Underground, Inc.